Regional Weather Roundup
Issued by NWS

Home | Current Version | Previous Version | Text Only | Print | Product List | Glossary On
Versions: 1 2 3 4 5 6 7 8 9 10 11 12 13 14 15 16 17 18 19 20 21 22 23 24 25 26 27 28 29 30 31 32 33 34 35 36 37 38 39 40 41 42 43 44 45 46 47 48 49 50
000
ASUS44 KBMX 231910
RWRAL

ALABAMA REGIONAL WEATHER ROUNDUP
NATIONAL WEATHER SERVICE BIRMINGHAM AL
200 PM CDT SUN JUL 23 2017

NOTE: "FAIR" INDICATES FEW OR NO CLOUDS BELOW 12,000 FEET
WITH NO SIGNIFICANT WEATHER AND/OR OBSTRUCTIONS TO VISIBILITY.

THE REMARK "TC" DENOTES TEMPERATURE IN DEGREES CELSIUS.

ALZ001>011-014-016>018-020-232000-
NORTH ALABAMA

CITY           SKY/WX    TMP DP  RH WIND       PRES   REMARKS
MUSCLE SHOALS  MOSUNNY   93  72  50 W8        29.91F HX 101
HUNTSVILLE     MOSUNNY   92  75  57 SW7       29.90F HX 103
DECATUR        MOSUNNY   90  74  59 W7        29.90F HX  99
HALEYVILLE     NOT AVBL
GADSDEN        SUNNY     92  74  55 SW7       29.91F HX 101
$$

ALZ012-013-022-023-030>036-040>044-232000-
WEST CENTRAL ALABAMA

CITY           SKY/WX    TMP DP  RH WIND       PRES   REMARKS
TUSCALOOSA     SUNNY     90  76  63 SW6       29.91F HX 101
DEMOPOLIS        N/A     89  71  54 CALM      29.92F HX  94
$$

ALZ015-024>026-033>036-041>044-232000-
CENTRAL ALABAMA

CITY           SKY/WX    TMP DP  RH WIND       PRES   REMARKS
BIRMINGHAM     PTSUNNY   91  71  51 NW6       29.94F HX  97
MONTGOMERY     MOSUNNY   93  73  52 VRB5      29.93F HX 102
SHELBY CO ARPT MOSUNNY   89  74  60 VRB6      29.93F HX  98
MAXWELL AFB    MOSUNNY   91  72  53 CALM      29.93F HX  98
GREENVILLE     FAIR      91  70  49 S8        29.95F HX  96
SELMA          NOT AVBL
PRATTVILLE     FAIR      90  72  56 S3        29.93F HX  97
BESSEMER       MOCLDY    87  73  62 CALM      29.94F HX  94
TALLADEGA      FAIR      91  75  58 W7        29.93F HX 102
PELL CITY      PTCLDY    90  75  62 SW8       29.92F HX 100
MARION         NOT AVBL
SYLACAUGA      FAIR      89  75  63 CALM      29.94F HX  98
$$

ALZ019-021-028-029-037-038-045>048-232000-
EAST CENTRAL ALABAMA

CITY           SKY/WX    TMP DP  RH WIND       PRES   REMARKS
ANNISTON       SUNNY     90  72  55 SW5       29.92F HX  97
ALEXANDER CITY MOSUNNY   88  73  61 S6        29.95F HX  96
AUBURN         MOSUNNY   88  73  61 S10       29.96F HX  95
$$

ALZ051>064-232000-
SOUTHWEST ALABAMA

CITY           SKY/WX    TMP DP  RH WIND       PRES   REMARKS
MOBILE         PTSUNNY   82  73  74 S12       29.98S
BROOKLEY FIELD LGT RAIN  78  75  90 VRB5      29.98F
EVERGREEN      MOSUNNY   90  72  55 MISG      29.95F HX  97
$$

ALZ049-050-065>069-232000-
SOUTHEAST ALABAMA

CITY           SKY/WX    TMP DP  RH WIND       PRES   REMARKS
DOTHAN         PTSUNNY   90  75  61 S14       30.00S HX 100
OZARK          MOSUNNY   89  76  65 S10       29.96F HX  99
TROY           MOSUNNY   89  73  59 VRB3      29.96F HX  97
EUFAULA        PTSUNNY   93  74  53 VRB6      29.94F HX 103
$$



USA.gov is the U.S. government's official web portal to all federal, state and local government web resources and services.